Wind_Speed
12 12 12 12 12 12 12 12 11 12 11 11 12 12 12 12 11 11 11 12 13 12 12 12 12 11 11 11 10 10 10 10 10 10 10 10 9 9 9 8 8 8 8
12 13 13 13 13 13 13 13 12 12 12 12 12 12 13 13 13 12 12 12 13 13 13 13 13 12 12 12 11 11 10 10 10 11 11 10 10 10 10 9 9 9 9
14 14 14 14 14 14 14 14 14 14 14 14 14 13 13 14 14 14 14 13 13 14 15 15 14 13 13 13 13 12 12 11 11 11 11 11 11 11 10 10 10 10 10
15 15 15 15 15 16 16 16 16 16 16 16 16 15 15 15 15 15 16 15 15 15 15 16 16 15 14 14 14 14 14 13 13 13 13 12 12 12 11 11 11 11 11
17 17 17 17 17 17 18 18 18 18 17 18 18 17 17 17 17 17 17 17 16 16 16 16 17 17 16 15 15 14 15 14 14 14 13 13 13 13 13 13 12 12 12
18 19 19 19 19 19 20 20 20 19 19 19 19 18 18 18 18 18 18 18 18 17 17 17 18 18 18 17 16 16 15 15 15 15 14 14 14 15 15 15 14 14 14
21 21 21 21 21 21 21 21 21 21 21 21 21 20 19 19 20 20 19 19 19 19 18 18 18 19 18 18 18 17 17 17 17 17 16 16 16 16 16 16 16 16 15
22 22 22 22 22 22 22 22 23 23 23 23 23 22 22 21 21 21 21 20 20 20 19 19 19 19 19 19 18 19 19 18 19 18 18 18 17 17 17 17 17 18 17
22 22 23 23 23 24 23 24 24 24 25 25 25 24 24 23 23 23 22 22 22 21 22 21 21 21 21 21 20 19 20 20 20 20 20 20 19 19 19 19 18 18 18
24 24 24 24 24 24 24 25 25 25 25 25 25 25 26 26 25 25 25 24 24 24 23 23 23 23 23 22 22 21 21 21 22 21 21 21 21 20 20 20 20 19 19
25 25 25 25 25 25 25 26 26 26 26 26 27 27 27 27 27 27 27 27 26 26 26 25 25 26 25 25 25 24 24 23 22 23 23 23 22 22 21 22 22 22 21
26 26 26 26 26 26 26 27 27 28 27 27 28 28 28 28 29 28 28 28 28 28 27 28 27 27 27 26 27 26 26 25 25 25 25 25 25 25 24 24 24 24 24
27 27 27 27 27 27 27 28 28 28 28 28 28 29 29 30 29 29 29 29 29 29 29 29 29 29 29 28 28 28 28 28 27 27 27 27 28 27 27 27 27 26 26
28 28 28 28 28 28 29 29 29 29 28 29 30 30 30 31 31 31 30 31 31 31 31 31 31 31 31 30 30 30 30 30 30 29 29 29 29 29 29 29 29 29 28
30 30 30 30 30 30 30 30 30 30 30 30 31 31 32 32 31 31 31 31 32 32 33 33 33 33 33 33 33 33 33 33 32 32 32 32 32 32 32 32 31 31 31
31 31 31 31 31 31 31 31 31 31 32 32 32 32 33 33 33 32 33 33 34 34 34 35 35 35 35 35 35 35 35 35 35 35 34 34 33 33 34 34 34 33 33
32 32 32 32 32 33 32 32 33 33 34 34 35 34 34 35 35 35 35 35 35 35 35 36 36 36 37 37 37 37 37 37 38 37 37 36 36 36 36 36 36 36 36
33 33 33 33 34 34 34 34 35 35 35 36 37 37 37 37 38 37 37 37 37 37 38 38 38 38 39 39 39 39 39 39 40 39 39 39 39 39 39 39 39 39 39
34 34 35 35 36 36 36 36 37 37 37 38 38 38 39 39 39 39 39 39 39 39 40 40 40 40 40 40 40 41 41 41 41 41 41 41 41 41 41 41 41 42 42
33 34 35 36 37 37 38 38 39 39 39 39 40 40 40 41 41 41 40 40 41 41 42 42 42 42 43 42 42 43 43 43 44 44 43 43 44 44 43 43 43 43 44
33 34 35 36 37 38 39 39 40 40 40 40 40 41 42 42 43 43 43 43 44 44 44 44 44 45 45 45 45 45 45 45 46 46 46 46 47 46 46 46 46 46 46
32 33 34 35 36 38 39 39 40 40 41 41 41 41 42 42 43 43 45 44 44 45 46 46 47 47 48 48 48 47 47 48 49 49 49 49 49 49 49 48 48 48 48
32 33 34 34 35 36 38 39 40 40 41 41 41 41 42 42 43 43 44 45 45 46 46 47 48 49 50 50 50 50 51 51 52 51 52 51 51 50 50 51 50 50 50
33 33 34 34 35 35 37 38 39 40 41 41 41 42 43 43 44 44 45 45 45 46 48 49 50 50 51 52 52 52 52 53 54 54 54 53 53 53 53 53 53 53 52
33 33 33 34 34 35 36 37 39 40 42 43 43 44 44 44 45 45 46 47 47 48 49 51 51 51 52 53 53 53 54 54 54 55 55 55 55 55 54 54 55 55 55
33 34 34 35 35 36 36 37 38 40 41 43 44 45 45 46 46 47 47 48 49 50 51 51 51 52 52 53 54 54 55 56 57 56 56 56 56 56 57 57 57 57 57
Wind_Direction
253 251 253 253 255 257 258 259 262 263 263 262 260 258 258 258 257 252 248 248 247 246 245 245 246 246 243 239 238 238 238 237 237 234 234 233 232 230 230 230 231 231 230
254 252 252 253 255 257 259 260 262 263 263 265 265 260 258 254 254 254 252 251 249 247 247 248 248 248 246 243 239 238 237 237 238 238 237 235 234 232 231 231 233 234 234
256 254 252 252 254 256 258 260 261 262 263 265 267 265 260 256 253 253 253 253 253 251 250 250 250 249 248 245 242 242 242 241 241 241 241 239 237 237 237 235 237 237 237
257 257 256 254 255 257 259 261 262 262 262 264 266 265 262 260 255 254 254 254 255 255 252 251 249 251 252 251 247 246 246 245 245 244 244 242 240 240 238 239 240 241 240
258 259 259 259 259 258 260 262 262 262 262 264 265 264 261 259 257 257 257 257 256 254 254 254 250 249 250 251 249 248 248 248 247 247 247 245 243 243 244 243 243 244 244
259 259 260 262 261 260 260 261 262 261 262 263 264 263 261 258 257 255 255 258 256 254 255 255 253 250 250 250 250 248 248 247 247 247 247 247 246 245 246 246 247 247 247
259 260 260 261 262 262 260 260 260 261 262 263 264 263 262 259 256 255 256 255 255 255 256 255 253 250 249 248 249 248 247 247 247 248 249 248 248 247 247 247 247 247 248
259 260 260 261 261 262 260 259 260 261 262 263 263 262 261 260 257 255 254 255 255 254 255 256 255 251 249 248 249 248 247 247 248 248 249 249 248 248 247 248 248 248 248
259 260 260 260 261 261 262 261 261 261 261 262 261 260 259 258 257 255 254 255 255 255 254 255 256 254 252 251 251 251 250 249 249 249 250 251 250 249 248 247 248 248 248
260 261 262 262 262 262 262 262 262 261 260 260 260 259 258 257 257 256 256 256 255 255 255 255 256 255 253 253 253 253 252 251 250 249 250 251 250 250 249 248 248 249 249
262 262 261 262 262 263 263 262 262 262 261 259 259 258 257 257 257 258 258 258 258 257 256 255 256 255 254 254 255 255 254 253 252 251 250 251 251 251 252 251 250 250 250
261 261 261 262 262 263 263 263 263 262 261 260 259 259 257 257 258 258 258 258 258 258 258 257 256 255 254 254 255 255 255 255 253 252 251 251 251 252 253 253 253 253 253
261 261 261 262 262 263 263 263 263 262 261 260 260 259 258 258 258 259 260 259 259 259 259 258 258 257 255 255 255 254 254 254 254 254 253 253 253 253 254 254 254 254 254
261 261 261 261 262 263 263 263 262 262 261 261 261 260 259 259 259 260 261 261 261 260 260 260 259 258 256 256 256 255 255 255 255 255 255 255 255 255 255 255 255 255 255
261 261 262 262 263 263 263 263 262 262 261 261 262 261 259 259 259 259 261 261 261 262 262 261 259 258 257 257 257 257 256 256 256 256 256 257 257 256 256 256 256 256 256
262 262 263 263 264 263 263 263 263 262 262 261 261 261 260 260 259 261 262 262 262 262 261 261 260 258 257 257 257 257 258 258 257 257 257 258 258 258 257 256 256 256 255
262 262 263 264 264 264 263 263 264 263 263 263 262 262 262 260 260 261 263 263 264 263 263 262 260 258 257 258 258 257 258 259 258 259 258 259 259 259 258 257 257 256 256
262 262 263 264 264 263 263 263 263 264 264 264 263 263 262 261 261 262 264 264 264 264 263 262 261 259 258 258 258 258 259 259 259 259 259 259 259 259 259 258 258 257 257
263 263 263 262 263 263 262 263 264 264 265 265 264 264 263 262 262 263 264 264 265 265 263 262 261 260 259 259 258 258 260 260 260 260 260 259 259 259 259 259 258 258 259
265 265 264 263 263 262 262 263 264 265 265 266 266 264 263 262 262 263 264 264 265 265 264 263 263 261 260 260 260 259 259 260 260 261 260 260 260 260 260 260 259 259 259
267 267 267 266 264 263 263 263 264 264 265 265 265 265 264 263 263 263 264 265 265 266 265 264 264 262 262 261 262 261 260 260 261 261 261 260 260 260 260 261 260 259 259
268 269 269 268 267 265 264 263 264 264 264 265 266 266 266 266 266 266 266 266 267 266 265 265 264 263 263 262 262 263 262 261 261 261 261 261 261 261 261 261 260 259 258
270 271 271 271 270 269 266 264 264 265 265 266 266 266 266 267 268 268 268 268 268 268 267 265 265 264 263 263 263 263 263 262 261 262 262 262 261 261 261 260 259 258 258
271 271 272 272 272 272 270 267 266 265 266 266 266 267 268 269 269 269 268 268 269 269 268 266 266 265 264 264 263 263 264 263 262 261 261 261 261 261 261 261 261 260 259
271 272 273 273 273 273 273 271 268 268 267 267 267 268 269 269 269 269 269 269 269 270 269 268 268 267 266 264 264 263 263 263 263 263 262 261 261 261 261 262 262 262 261
271 272 273 274 274 274 274 273 271 270 269 268 268 268 268 268 270 270 270 270 270 271 270 270 269 268 267 266 265 264 264 264 264 264 263 262 261 261 261 262 262 262 262
Height
5834 5834 5834 5834 5835 5835 5835 5835 5836 5836 5837 5837 5837 5837 5837 5838 5838 5838 5838 5839 5839 5839 5839 5840 5840 5840 5841 5841 5841 5841 5842 5842 5842 5843 5843 5843 5844 5844 5844 5845 5845 5846 5846
5831 5832 5832 5832 5833 5833 5833 5833 5834 5834 5834 5835 5835 5835 5835 5835 5836 5836 5836 5837 5837 5837 5837 5838 5838 5838 5839 5839 5839 5840 5840 5840 5841 5841 5841 5842 5842 5842 5843 5843 5844 5844 5844
5829 5829 5829 5830 5830 5830 5831 5831 5831 5832 5832 5832 5833 5833 5833 5833 5833 5834 5834 5835 5835 5835 5835 5835 5836 5836 5837 5837 5838 5838 5838 5839 5839 5839 5840 5840 5840 5841 5841 5842 5842 5843 5843
5826 5826 5827 5827 5827 5828 5828 5828 5829 5829 5829 5830 5830 5830 5830 5831 5831 5831 5832 5832 5832 5833 5833 5833 5833 5834 5834 5835 5835 5836 5836 5837 5837 5837 5838 5838 5838 5839 5839 5840 5840 5841 5841
5822 5823 5823 5824 5824 5824 5825 5825 5825 5826 5826 5826 5827 5827 5827 5828 5828 5828 5829 5829 5830 5830 5830 5830 5831 5831 5832 5832 5833 5833 5834 5834 5835 5835 5836 5836 5836 5837 5837 5838 5838 5839 5839
5819 5819 5820 5820 5820 5821 5821 5821 5822 5822 5822 5823 5823 5823 5824 5824 5825 5825 5825 5826 5826 5827 5827 5827 5828 5828 5829 5829 5830 5830 5831 5831 5832 5832 5833 5833 5834 5834 5834 5835 5836 5836 5837
5815 5815 5815 5816 5816 5816 5817 5817 5817 5818 5818 5819 5819 5819 5820 5820 5821 5821 5822 5822 5823 5823 5824 5824 5824 5824 5825 5826 5827 5827 5828 5828 5829 5829 5830 5830 5831 5831 5832 5832 5833 5833 5834
5810 5810 5811 5811 5811 5812 5812 5812 5813 5813 5814 5814 5814 5815 5815 5816 5816 5817 5818 5818 5819 5819 5820 5820 5820 5821 5821 5822 5823 5824 5824 5825 5825 5826 5826 5827 5827 5828 5828 5829 5829 5830 5830
5805 5805 5806 5806 5806 5807 5807 5807 5808 5808 5808 5809 5809 5810 5811 5811 5812 5812 5813 5814 5814 5815 5816 5816 5817 5817 5817 5818 5819 5820 5820 5821 5821 5822 5823 5823 5824 5824 5825 5825 5826 5826 5827
5800 5800 5801 5801 5801 5801 5801 5801 5802 5802 5802 5803 5803 5804 5805 5806 5807 5807 5808 5809 5809 5810 5811 5811 5812 5813 5813 5814 5815 5816 5816 5817 5817 5818 5818 5819 5820 5820 5821 5821 5822 5823 5823
5794 5794 5795 5795 5795 5795 5795 5795 5795 5795 5796 5796 5797 5798 5799 5800 5801 5802 5803 5803 5804 5805 5805 5806 5807 5807 5808 5809 5810 5811 5811 5812 5812 5813 5814 5814 5815 5816 5816 5817 5818 5818 5819
5788 5788 5788 5789 5789 5789 5789 5789 5789 5789 5790 5790 5791 5792 5793 5794 5795 5796 5797 5798 5798 5799 5800 5800 5801 5801 5803 5804 5804 5805 5806 5806 5807 5808 5808 5809 5810 5811 5811 5812 5813 5814 5814
5781 5782 5782 5782 5782 5782 5782 5782 5782 5782 5783 5784 5785 5785 5786 5787 5788 5789 5790 5791 5792 5793 5793 5794 5794 5795 5796 5798 5798 5799 5800 5801 5801 5802 5803 5804 5804 5805 5806 5807 5807 5808 5809
5775 5775 5775 5775 5776 5776 5776 5776 5776 5776 5777 5777 5778 5779 5779 5780 5781 5782 5783 5784 5785 5785 5786 5787 5787 5788 5790 5791 5792 5792 5793 5794 5795 5796 5797 5797 5798 5799 5800 5800 5801 5802 5803
5768 5768 5768 5768 5769 5769 5769 5769 5769 5769 5770 5770 5771 5771 5772 5773 5774 5775 5776 5776 5777 5777 5778 5779 5780 5781 5782 5783 5784 5785 5786 5787 5788 5789 5790 5791 5791 5792 5793 5794 5795 5795 5796
5760 5761 5761 5761 5761 5761 5762 5762 5762 5762 5762 5763 5763 5764 5765 5766 5766 5767 5768 5768 5769 5769 5770 5770 5771 5773 5774 5775 5776 5777 5778 5779 5780 5781 5782 5783 5784 5784 5785 5786 5787 5788 5789
5752 5752 5753 5753 5753 5753 5754 5754 5754 5754 5755 5755 5755 5756 5757 5757 5758 5758 5759 5759 5760 5760 5761 5762 5762 5764 5765 5766 5767 5769 5770 5771 5772 5772 5773 5774 5775 5776 5777 5778 5779 5780 5781
5743 5744 5744 5744 5744 5745 5745 5745 5746 5746 5746 5747 5747 5747 5748 5749 5749 5749 5750 5750 5750 5751 5752 5752 5753 5754 5756 5757 5758 5759 5760 5761 5762 5763 5764 5765 5766 5767 5768 5769 5770 5771 5772
5734 5734 5735 5735 5735 5736 5736 5737 5737 5737 5737 5738 5738 5738 5739 5739 5739 5740 5740 5741 5741 5741 5742 5743 5743 5744 5745 5747 5748 5749 5750 5751 5752 5753 5754 5755 5756 5757 5758 5759 5760 5761 5762
5725 5725 5725 5725 5726 5726 5727 5727 5727 5727 5728 5728 5728 5729 5729 5729 5729 5730 5730 5730 5730 5731 5731 5732 5733 5734 5735 5736 5737 5738 5739 5740 5741 5742 5743 5744 5745 5746 5747 5748 5749 5750 5751
5717 5716 5716 5716 5716 5716 5717 5717 5717 5717 5718 5718 5718 5718 5718 5718 5719 5719 5719 5719 5719 5720 5720 5720 5721 5722 5723 5724 5725 5727 5728 5728 5730 5731 5731 5732 5733 5734 5735 5736 5737 5739 5740
5708 5708 5707 5707 5706 5706 5706 5707 5707 5707 5707 5707 5707 5707 5707 5707 5708 5707 5707 5708 5708 5708 5708 5709 5709 5710 5711 5711 5713 5714 5715 5717 5717 5718 5719 5720 5721 5721 5722 5724 5725 5726 5727
5699 5699 5698 5698 5697 5696 5696 5696 5696 5696 5696 5697 5697 5697 5696 5696 5696 5696 5696 5696 5696 5696 5696 5696 5697 5697 5698 5698 5699 5700 5701 5702 5704 5706 5706 5706 5707 5708 5709 5710 5711 5712 5713
5691 5690 5689 5688 5688 5687 5686 5685 5685 5685 5686 5686 5686 5686 5685 5685 5685 5684 5684 5684 5684 5684 5684 5684 5684 5684 5684 5684 5685 5685 5686 5687 5688 5690 5692 5692 5693 5693 5694 5695 5696 5698 5699
5682 5681 5680 5679 5678 5678 5676 5676 5675 5675 5675 5674 5674 5674 5674 5673 5673 5672 5672 5672 5671 5671 5670 5670 5670 5669 5669 5669 5669 5670 5671 5671 5671 5673 5676 5677 5678 5678 5679 5680 5681 5682 5684
5673 5672 5671 5670 5669 5668 5667 5665 5665 5664 5663 5663 5663 5662 5662 5661 5661 5660 5659 5659 5658 5657 5656 5656 5655 5655 5654 5654 5654 5654 5654 5655 5656 5656 5658 5660 5662 5663 5663 5664 5665 5666 5667